Wind_Speed
13 12 13 16 20 23 26 28 30 32 32 34 39 36 38 38 38 39 41 46 44 43 45 46 47 47 46 40 33 32 33 38 43 48 41 28 26 24 25 25 24 32 46 62
13 14 16 19 22 25 27 28 31 32 34 35 38 33 36 37 41 41 43 47 45 44 46 48 49 47 47 45 37 32 32 33 39 42 45 36 25 28 25 25 27 27 37 57
14 16 18 20 22 25 28 30 33 35 36 36 36 34 40 41 46 46 47 47 44 46 46 48 46 44 46 45 42 35 32 34 36 41 42 42 27 31 29 26 28 28 32 44
15 16 19 21 22 24 28 32 35 37 40 39 37 38 41 44 47 49 48 45 48 44 45 47 46 47 47 44 45 42 33 32 35 37 40 44 40 28 34 30 29 31 32 35
19 20 21 22 24 27 31 34 38 41 43 39 37 39 41 47 49 52 48 46 44 43 47 48 50 51 50 48 43 47 37 34 34 36 37 43 45 33 35 37 33 31 35 35
24 24 25 25 26 29 35 38 40 42 43 41 38 41 43 49 52 52 48 46 45 46 48 49 49 51 49 47 45 47 44 36 34 35 37 43 46 42 30 40 40 37 36 37
22 27 28 29 31 30 33 37 40 44 45 46 42 44 44 52 53 51 51 48 47 49 50 50 49 49 50 50 49 46 49 40 37 36 36 40 40 45 37 35 45 44 40 40
22 25 28 29 30 32 34 37 39 44 45 44 45 45 46 53 52 53 53 50 51 48 51 51 48 51 52 54 56 51 48 46 38 37 37 40 40 39 38 37 41 48 49 46
33 27 31 31 31 32 35 35 39 42 43 46 49 48 51 53 53 54 52 52 50 49 51 54 52 53 52 55 56 52 48 49 39 38 39 40 42 41 33 37 41 45 52 56
34 33 31 32 33 31 31 35 38 44 46 49 52 55 52 52 58 54 54 52 53 53 52 53 56 55 56 57 55 50 48 51 44 38 41 42 43 42 38 33 41 47 50 59
36 35 34 33 34 30 30 34 38 45 47 51 57 58 50 55 57 53 54 51 54 53 55 57 59 59 58 60 56 53 51 51 48 40 43 46 48 45 47 42 43 46 54 61
36 36 35 32 35 34 32 35 39 45 50 52 59 55 56 53 57 52 52 51 54 57 59 62 63 63 63 63 59 55 52 54 49 41 45 49 52 51 51 40 39 49 54 63
37 37 41 36 36 42 38 41 45 47 50 54 60 57 51 52 54 54 53 55 58 60 63 66 68 69 69 65 63 58 55 56 50 44 48 52 55 55 55 45 42 45 50 58
38 36 38 33 37 44 42 45 48 49 53 56 55 52 49 52 53 51 55 60 63 65 69 71 72 74 76 72 64 56 57 59 50 45 50 54 58 59 56 49 47 47 49 49
39 41 42 37 38 41 43 43 46 50 52 58 53 61 53 55 51 57 60 63 69 73 76 78 79 79 76 70 60 55 55 59 49 46 52 56 60 62 53 51 49 50 46 47
40 42 45 42 41 46 44 42 45 49 55 56 56 50 56 57 60 63 65 72 73 76 80 84 84 82 76 70 57 53 52 58 45 48 54 57 62 63 54 52 50 51 46 49
41 45 48 50 51 56 55 47 52 54 54 53 55 58 59 59 65 69 71 74 76 78 82 85 83 74 67 60 52 52 50 53 43 50 55 60 64 63 54 51 51 52 45 48
43 44 49 52 54 59 53 48 52 50 53 54 57 61 65 66 65 70 75 79 79 81 83 82 78 73 65 58 50 49 50 49 43 52 56 62 64 63 54 51 52 53 45 47
42 44 49 53 54 64 50 53 52 53 53 57 59 63 66 69 69 67 77 79 81 82 81 76 75 69 62 50 48 46 52 42 45 52 58 65 66 62 54 52 52 52 45 48
48 47 49 50 54 61 49 51 54 55 56 59 61 64 68 72 76 72 72 77 78 79 78 75 72 65 54 53 45 49 52 39 48 53 61 67 68 62 52 53 52 47 45 53
53 48 47 51 58 57 52 53 54 55 59 56 64 67 69 74 76 77 76 75 76 76 75 74 72 54 55 49 46 50 48 41 48 56 64 68 68 57 51 52 53 44 47 51
54 45 45 54 60 57 53 55 57 57 55 65 63 67 70 70 68 71 74 75 74 73 74 72 63 55 54 45 50 53 40 42 50 58 65 70 64 53 50 50 49 43 49 46
53 42 49 52 57 52 53 55 57 59 62 63 69 68 70 69 69 71 72 71 71 69 70 66 58 52 49 48 50 51 38 45 52 60 66 67 60 50 48 48 44 43 47 42
52 43 50 59 56 52 56 59 58 63 67 67 69 69 67 68 69 69 69 69 68 67 64 62 52 50 45 47 49 45 38 47 53 61 68 64 55 47 47 46 40 42 41 37
49 46 55 58 54 54 59 59 63 66 68 69 67 67 66 67 66 67 66 65 64 65 58 56 48 45 45 47 48 39 40 48 54 61 66 62 50 44 44 43 36 39 34 29
43 54 58 56 57 59 56 62 68 68 67 67 66 61 63 65 64 65 64 65 63 60 57 51 44 43 46 47 44 35 43 48 54 62 65 59 44 42 42 40 35 36 29 24
Wind_Direction
316 304 296 300 302 304 305 311 313 316 320 325 325 329 330 332 333 333 329 330 328 328 329 331 332 332 333 336 337 336 338 338 348 355 350 320 287 279 269 266 260 248 234 226
317 306 301 301 302 306 310 310 313 319 321 325 327 333 329 331 331 336 335 333 330 329 329 333 334 332 330 330 332 331 335 340 343 352 349 341 282 273 271 265 265 252 243 232
318 311 307 307 312 315 314 317 316 320 324 328 325 325 325 325 325 332 333 332 332 331 332 334 336 338 334 330 328 328 328 335 341 344 350 345 318 266 259 258 262 261 246 239
328 322 322 321 321 321 318 317 320 324 326 329 326 323 322 323 327 331 331 331 330 332 334 333 335 337 335 332 330 326 326 327 336 337 342 345 339 278 257 248 251 256 256 243
338 328 325 325 323 321 321 324 324 328 327 327 325 323 324 323 325 328 330 331 332 331 332 333 331 331 330 331 330 328 325 323 329 331 337 339 341 318 259 249 243 245 250 250
334 329 324 324 323 323 322 324 324 325 325 328 333 326 323 322 323 327 329 331 331 330 329 329 328 328 328 330 328 328 323 318 321 327 329 334 339 329 290 248 241 246 243 244
327 323 323 324 321 323 318 318 322 325 328 332 330 324 322 322 325 327 328 329 329 328 328 327 326 326 326 327 325 324 325 317 316 321 324 329 331 335 306 265 244 242 243 240
319 316 316 316 316 320 324 326 325 323 326 329 327 324 324 323 324 325 327 329 327 326 326 325 324 323 321 322 324 323 323 322 313 314 319 323 329 327 311 280 251 243 241 241
318 322 317 317 320 323 327 324 323 320 322 326 332 326 322 320 322 323 326 325 322 323 322 323 322 321 319 320 322 322 320 320 310 310 313 318 322 328 311 283 259 245 245 244
316 318 318 319 320 323 324 323 320 319 320 322 326 324 323 318 320 321 322 320 320 321 319 320 320 320 317 319 319 319 318 319 313 307 310 313 316 321 327 297 260 251 245 242
315 322 322 321 319 324 324 321 318 316 315 315 325 329 323 318 316 319 318 317 320 321 319 319 318 318 314 317 317 317 316 316 312 306 306 310 313 317 320 317 275 258 250 246
312 318 321 323 319 319 321 318 315 309 315 314 314 336 319 315 312 317 316 317 320 321 319 317 315 317 315 313 315 315 314 315 309 305 304 307 311 317 318 307 278 268 263 265
309 314 315 319 318 320 319 319 316 310 309 313 311 321 318 315 313 316 321 323 323 321 318 318 316 315 314 312 315 317 313 313 308 305 305 307 311 317 317 305 286 278 276 275
308 310 308 315 316 314 312 316 313 305 303 309 318 320 323 315 318 319 321 323 318 317 316 315 313 312 311 312 312 315 313 310 305 305 305 308 312 316 317 304 292 292 284 271
309 308 306 311 311 305 306 306 306 300 303 312 319 318 321 322 318 317 320 318 317 317 314 313 311 311 312 318 317 311 310 307 303 305 305 309 314 316 312 301 295 297 283 275
305 304 304 312 314 306 307 308 307 305 309 314 315 319 320 322 320 319 322 317 317 315 314 311 311 316 320 320 320 309 308 307 303 304 305 310 316 317 311 300 297 299 284 281
308 307 308 313 316 314 313 315 313 312 313 315 316 319 322 321 321 322 319 317 317 315 312 313 320 323 318 315 313 309 308 305 303 305 307 312 317 318 309 301 299 300 284 284
304 303 307 311 314 308 312 313 310 310 316 318 318 321 321 320 322 322 317 319 319 316 317 322 324 322 320 315 312 311 311 303 307 307 310 314 319 321 312 303 299 301 286 287
300 302 304 307 308 310 315 313 313 315 315 315 321 320 320 319 320 326 319 318 319 319 321 324 323 323 319 315 313 309 312 306 309 310 312 316 318 323 311 305 302 302 290 294
304 304 306 308 304 309 317 311 311 315 318 320 319 319 321 320 321 326 321 318 318 319 321 323 324 321 317 316 312 317 309 311 312 313 314 319 322 319 311 307 305 302 296 302
304 305 308 305 304 309 310 309 313 316 317 316 318 320 323 322 320 320 319 318 319 320 321 321 322 316 317 316 313 317 311 316 315 316 317 321 323 316 312 310 311 304 304 304
301 305 306 302 301 308 310 308 310 311 314 317 319 319 319 320 319 314 317 318 318 320 320 322 319 312 314 314 317 316 313 316 315 318 320 324 324 317 313 314 314 308 311 305
300 303 300 298 299 304 306 307 309 313 314 316 316 318 316 319 318 317 317 316 316 319 320 322 318 315 312 315 319 316 314 316 317 319 323 327 324 318 316 318 313 313 313 310
299 302 293 288 302 301 303 306 309 309 313 315 315 316 316 318 315 315 315 316 316 317 322 320 315 315 312 317 317 312 318 318 319 323 326 329 325 318 319 320 313 318 313 314
301 295 287 295 300 299 303 302 304 310 311 313 314 313 313 314 314 314 316 315 315 319 322 318 315 312 311 317 315 311 318 320 322 327 329 330 324 316 320 322 316 320 313 317
297 285 289 296 297 298 302 303 305 308 309 310 312 313 311 311 313 316 316 315 317 322 318 318 314 311 312 318 315 314 318 320 325 330 332 331 322 316 322 324 320 323 315 316
Height
5821 5821 5819 5818 5815 5813 5810 5806 5802 5797 5793 5789 5779 5774 5767 5761 5755 5748 5739 5730 5723 5715 5708 5700 5693 5686 5678 5670 5663 5655 5647 5638 5629 5621 5614 5609 5607 5607 5608 5609 5609 5612 5617 5626
5819 5817 5815 5814 5811 5808 5805 5800 5796 5792 5787 5782 5775 5769 5761 5756 5749 5741 5733 5725 5717 5710 5702 5695 5687 5680 5673 5665 5657 5650 5643 5635 5626 5618 5610 5605 5602 5602 5602 5602 5603 5606 5609 5615
5816 5814 5812 5809 5807 5803 5798 5794 5789 5785 5781 5775 5769 5765 5756 5751 5742 5734 5726 5719 5711 5703 5696 5689 5681 5674 5667 5659 5652 5645 5637 5629 5622 5614 5608 5601 5596 5595 5597 5597 5598 5599 5602 5605
5814 5811 5807 5804 5801 5797 5793 5789 5783 5778 5773 5769 5762 5759 5751 5743 5734 5728 5721 5713 5706 5698 5691 5685 5677 5668 5660 5653 5646 5639 5631 5624 5616 5609 5603 5596 5591 5589 5589 5590 5591 5592 5594 5596
5811 5807 5804 5800 5797 5792 5788 5782 5776 5772 5766 5763 5758 5750 5743 5735 5728 5722 5715 5707 5698 5691 5685 5677 5669 5661 5653 5645 5638 5632 5624 5617 5610 5604 5597 5591 5585 5579 5579 5582 5583 5584 5585 5586
5806 5803 5800 5796 5792 5787 5780 5776 5771 5765 5759 5755 5751 5741 5737 5728 5722 5715 5707 5699 5692 5685 5677 5671 5662 5654 5645 5637 5629 5623 5617 5609 5602 5596 5590 5584 5577 5570 5568 5570 5574 5575 5577 5578
5805 5798 5794 5790 5786 5782 5777 5772 5765 5758 5751 5747 5742 5736 5729 5720 5712 5705 5698 5692 5685 5678 5669 5660 5653 5645 5636 5628 5620 5612 5606 5600 5593 5587 5582 5576 5569 5563 5558 5557 5561 5565 5568 5570
5802 5797 5790 5786 5782 5777 5772 5766 5759 5751 5747 5742 5736 5730 5721 5711 5703 5696 5690 5683 5675 5667 5659 5652 5644 5636 5628 5619 5611 5602 5595 5588 5582 5576 5571 5566 5560 5554 5548 5546 5548 5551 5555 5558
5790 5791 5784 5780 5775 5772 5765 5759 5752 5744 5740 5733 5727 5723 5715 5702 5696 5688 5681 5674 5665 5657 5648 5640 5633 5625 5616 5608 5600 5591 5583 5576 5570 5565 5559 5554 5549 5543 5536 5535 5534 5537 5540 5542
5785 5781 5778 5773 5768 5765 5759 5753 5746 5738 5731 5723 5717 5708 5706 5695 5686 5678 5671 5664 5655 5646 5638 5629 5620 5612 5604 5595 5587 5578 5569 5563 5558 5552 5547 5542 5537 5532 5526 5522 5523 5522 5523 5525
5777 5774 5771 5765 5760 5756 5753 5745 5738 5729 5723 5714 5705 5700 5695 5687 5677 5672 5662 5653 5645 5636 5627 5619 5610 5601 5591 5582 5573 5565 5556 5549 5543 5538 5532 5527 5522 5517 5514 5510 5506 5507 5507 5508
5770 5765 5761 5758 5751 5748 5744 5736 5729 5720 5714 5706 5698 5695 5689 5679 5667 5661 5655 5645 5635 5626 5616 5607 5598 5588 5578 5568 5558 5549 5541 5535 5528 5523 5517 5511 5505 5499 5493 5490 5487 5483 5483 5481
5763 5758 5750 5749 5744 5736 5732 5728 5720 5712 5704 5700 5687 5685 5680 5670 5658 5650 5645 5638 5627 5617 5606 5595 5584 5573 5562 5552 5544 5537 5527 5519 5512 5508 5502 5494 5486 5478 5471 5465 5462 5461 5458 5455
5754 5752 5745 5744 5737 5727 5722 5719 5711 5702 5695 5688 5683 5676 5675 5660 5650 5642 5634 5626 5615 5603 5592 5581 5569 5557 5544 5535 5527 5520 5512 5503 5495 5491 5485 5476 5467 5456 5447 5439 5434 5430 5426 5421
5747 5743 5736 5735 5729 5720 5714 5709 5700 5692 5684 5674 5674 5658 5657 5649 5641 5631 5625 5612 5601 5590 5576 5562 5550 5538 5526 5517 5510 5502 5492 5485 5478 5474 5466 5458 5447 5435 5424 5416 5408 5403 5397 5393
5738 5732 5726 5724 5718 5708 5705 5700 5689 5680 5672 5666 5658 5657 5643 5637 5627 5618 5612 5597 5588 5576 5561 5546 5531 5520 5509 5500 5492 5483 5475 5467 5460 5455 5448 5439 5428 5415 5403 5393 5385 5379 5372 5368
5727 5720 5715 5712 5707 5695 5693 5687 5679 5669 5662 5655 5646 5639 5635 5629 5615 5602 5594 5586 5572 5560 5545 5530 5516 5503 5491 5482 5475 5468 5459 5451 5444 5438 5430 5421 5409 5396 5383 5372 5364 5357 5350 5344
5718 5712 5706 5702 5696 5685 5680 5676 5669 5662 5652 5642 5637 5628 5618 5610 5608 5593 5576 5564 5555 5541 5528 5515 5502 5489 5477 5467 5459 5452 5443 5434 5428 5421 5412 5402 5390 5376 5363 5353 5343 5337 5329 5324
5709 5704 5697 5690 5683 5674 5674 5661 5653 5647 5647 5630 5624 5615 5605 5595 5593 5591 5558 5549 5535 5523 5512 5500 5488 5474 5463 5454 5447 5439 5430 5421 5415 5406 5396 5385 5372 5358 5344 5334 5325 5316 5308 5303
5697 5693 5686 5677 5666 5658 5660 5650 5642 5636 5632 5621 5612 5604 5592 5581 5567 5568 5556 5537 5525 5511 5498 5487 5474 5461 5451 5443 5435 5427 5417 5409 5402 5392 5381 5369 5354 5340 5327 5317 5308 5298 5289 5281
5682 5678 5673 5663 5653 5650 5645 5637 5632 5626 5619 5616 5599 5588 5583 5568 5553 5539 5532 5526 5511 5499 5487 5475 5463 5449 5440 5432 5425 5415 5406 5399 5390 5379 5367 5353 5338 5323 5311 5302 5291 5282 5274 5262
5668 5665 5661 5650 5639 5641 5632 5623 5618 5613 5610 5592 5592 5579 5572 5564 5551 5535 5521 5508 5497 5485 5474 5461 5450 5439 5430 5421 5415 5404 5395 5388 5378 5367 5354 5339 5322 5308 5298 5287 5277 5268 5259 5247
5657 5655 5649 5642 5631 5629 5619 5612 5605 5595 5592 5587 5572 5568 5553 5544 5533 5521 5509 5498 5485 5474 5461 5449 5439 5431 5420 5412 5402 5394 5386 5378 5367 5355 5341 5324 5308 5295 5285 5275 5266 5257 5245 5235
5647 5643 5635 5621 5627 5618 5609 5600 5593 5583 5576 5570 5557 5546 5537 5528 5517 5507 5495 5484 5472 5462 5450 5439 5428 5421 5412 5403 5392 5383 5376 5367 5357 5344 5328 5312 5297 5285 5276 5266 5256 5248 5236 5226
5636 5627 5617 5614 5612 5608 5596 5589 5580 5574 5561 5554 5549 5532 5522 5513 5505 5492 5483 5472 5460 5449 5438 5427 5419 5411 5403 5394 5384 5375 5367 5358 5348 5334 5318 5302 5287 5276 5268 5259 5250 5241 5230 5221
5622 5607 5603 5605 5595 5587 5590 5576 5563 5558 5550 5540 5530 5527 5510 5498 5490 5480 5470 5458 5448 5438 5426 5416 5409 5401 5393 5385 5376 5367 5359 5350 5339 5325 5309 5293 5279 5269 5260 5252 5244 5235 5225 5218